Regional Weather Roundup
Issued by NWS

Home | Current Version | Previous Version | Graphics & Text | Print | Product List | Glossary On
Versions: 1 2 3 4 5 6 7 8 9 10 11 12 13 14 15 16 17 18 19 20 21 22 23 24 25 26 27 28 29 30 31 32 33 34 35 36 37 38 39 40 41 42 43 44 45 46 47 48 49 50
000
ASUS43 KMKX 111320
RWRWI

WISCONSIN REGIONAL WEATHER ROUNDUP
NATIONAL WEATHER SERVICE MILWAUKEE/SULLIVAN WI
700 AM CST THU FEB 11 2016

NOTE: "FAIR" INDICATES FEW OR NO CLOUDS BELOW 12,000 FEET WITH NO
SIGNIFICANT WEATHER AND/OR OBSTRUCTIONS TO VISIBILITY.

WIZ001-002-006>008-014>016-023>028-111400-
NORTHWEST WISCONSIN

CITY           SKY/WX    TMP DP  RH WIND       PRES   REMARKS
SUPERIOR ARPT  CLOUDY    -9 -15  77 SW5       30.32S WCI -21
ASHLAND        CLOUDY    -4  -8  83 SW8       30.28R WCI -19
HAYWARD        CLOUDY   -20 -26  74 CALM      30.26S
SIREN          CLOUDY   -15 -21  73 CALM      30.30S
CUMBERLAND     PTCLDY   -15 -20  76 CALM      30.26R
RICE LAKE      PTCLDY   -12 -17  81 CALM      30.30R
CHETEK         PTCLDY   -13 -17  81 CALM      30.29S
LADYSMITH      CLOUDY   -15 -20  76 CALM      30.27S
EAU CLAIRE     PTCLDY    -9 -14  78 W3        30.30R
MENOMONIE      PTCLDY    -7 -13  74 SW3       30.32R
NEW RICHMOND   CLOUDY    -9 -14  79 CALM      30.30R
OSCEOLA        CLOUDY    -7 -10  84 CALM      30.34S
$$

WIZ003>005-009-010-017-018-111400-
NORTH CENTRAL WISCONSIN

CITY           SKY/WX    TMP DP  RH WIND       PRES   REMARKS
MANITOWISH WTR CLOUDY    -3  -6  87 CALM      30.16R
ARBOR VITAE    CLEAR      0  -3  85 CALM      30.16R
WOODRUFF       CLEAR      0  -3  85 CALM      30.16R
RHINELANDER    PTCLDY    -1  -6  79 W5        30.16R WCI -11
EAGLE RIVER    MOCLDY    -4  -8  83 W5        30.14R WCI -15
LAND O LAKES   PTCLDY     4   1  86 W3        30.14R
PHILLIPS       PTCLDY   -14 -18  81 CALM      30.20S
TOMAHAWK       CLEAR     -8 -12  84 CALM      30.19R
MEDFORD        CLOUDY   -12 -15  84 CALM      30.20S
MERRILL        CLOUDY    -9 -12  86 CALM      30.22S
$$

WIZ029-030-035-036-043>047-111400-
CENTRAL WISCONSIN

CITY           SKY/WX    TMP DP  RH WIND       PRES   REMARKS
WAUSAU         CLOUDY    -3  -8  79 NW7       30.21S WCI -16
MOSINEE        CLEAR     -4  -6  92 CALM      30.22S
MARSHFIELD     CLOUDY   -10 -16  74 NW7       30.22S WCI -25
STEVENS POINT  CLOUDY    -8 -12  81 CALM      30.25S
WAUPACA        CLEAR      1  -5  75 NW6       30.27S WCI -11
WAUTOMA        CLOUDY    -2  -8  75 CALM      30.28R
WISC RAPIDS    CLOUDY   -10 -15  78 SW3       30.27S
CAMP DOUGLAS   CLEAR    -11 -15  84 W5        30.29R WCI -23
$$

WIZ011>013-019>022-031-037>040-048>050-111400-
NORTHEAST WISCONSIN

CITY           SKY/WX    TMP DP  RH WIND       PRES   REMARKS
ANTIGO         CLEAR     -4  -7  85 NW9       30.17R WCI -20
SHAWANO        MOCLDY     1  -4  76 W6        30.26R WCI -10
OCONTO         CLEAR     -2  -6  84 W6        30.25R WCI -14
STURGEON BAY   CLEAR      1  -6  71 W5        30.24R WCI  -8
GREEN BAY      CLEAR     -4  -8  83 W8        30.25R WCI -19
MANITOWOC      CLEAR      2  -4  76 NW10      30.25R WCI -14
APPLETON       CLEAR     -2  -9  71 W9        30.23R WCI -18
CLINTONVILLE   CLEAR      0  -6  78 W3        30.26R
OSHKOSH        PTCLDY    -2  -8  76 W8        30.26R WCI -17
$$

WIZ032>034-041-042-053>061-111400-
SOUTHWEST WISCONSIN

CITY           SKY/WX    TMP DP  RH WIND       PRES   REMARKS
LA CROSSE      PTCLDY    -5  -9  83 CALM      30.34R
SPARTA         PTCLDY   -17 -22  80 CALM      30.32R
VIROQUA        PTCLDY    -1  -5  85 W3        30.26R
BOSCOBEL       PTCLDY    -5 -10  79 CALM      30.35R
PRAIRIE DU CHI PTCLDY    -1  -7  75 CALM      30.34S
PLATTEVILLE    CLEAR      2  -4  77 NW3       30.29R
$$

WIZ056-057-062-063-064-067-068-111400-
SOUTH CENTRAL WISCONSIN

CITY           SKY/WX    TMP DP  RH WIND       PRES   REMARKS
REEDSBURG      PTCLDY    -8 -11  86 CALM      30.29R
BARABOO/DELLS  PTCLDY    -7 -11  81 CALM      30.28R
LONE ROCK      PTCLDY    -7 -13  75 W3        30.33R
MINERAL POINT  CLOUDY     1  -4  78 CALM      30.28R
MADISON        CLEAR      1  -5  75 CALM      30.29R
MIDDLETON      CLEAR      0  -5  80 CALM      30.29R
WATERTOWN      CLEAR      1  -4  78 NW3       30.27R
MONROE         CLEAR      3  -2  78 NW6       30.26S WCI  -8
JANESVILLE     CLEAR      5  -2  72 NW7       30.29R WCI  -7
$$

WIZ051-052-058>065-066-070>072-111400-
SOUTHEAST WISCONSIN

CITY           SKY/WX    TMP DP  RH WIND       PRES   REMARKS
MILWAUKEE      CLEAR      5  -4  66 NW8       30.27R WCI  -8
WAUKESHA       CLEAR      0  -6  78 W7        30.26R WCI -13
MILWAUKEE/TIMM CLEAR      3  -6  66 NW7       30.27R WCI  -9
RACINE         CLEAR      4  -5  66 NW9       30.28R WCI -10
BURLINGTON     PTCLDY     1  -6  75 NW5       30.27R WCI  -9
KENOSHA        CLEAR      5  -4  66 NW7       30.26R WCI  -7
FOND DU LAC    CLEAR      1  -6  72 NW8       30.27R WCI -13
SHEBOYGAN      CLEAR      2  -6  69 NW8       30.25R WCI -12
WEST BEND      CLEAR      1  -6  71 CALM      30.25R
JUNEAU         CLEAR      0  -6  77 NW6       30.27S WCI -12
$$

LSZ147-162-111400-
LAKE SUPERIOR

STATION/POSITION TIME  TEMP    WIND        PRES    WAVE
                       AIR SEA DIR/SP/G            HT/PER
                 (UTC) (F)     (DEG/KT/KT) (MB)    (FT/S)
DEVILS ISLAND    1200    8     280/  9/ 11 1026.4F
PORT WING        1240   -1     200/  7/ 11 1025.4S
SAXON HARBOR     1240    4                 1024.4S
$$

LMZ867-665-643>646-111400-
LAKE MICHIGAN

STATION/POSITION TIME  TEMP    WIND        PRES    WAVE
                       AIR SEA DIR/SP/G            HT/PER
                 (UTC) (F)     (DEG/KT/KT) (MB)    (FT/S)
CHAMBERS ISLAND  1240    8     300/  9/ 15 1023.0R
ALGOMA LAKESHORE 1241          310/  5/  8   N/A
KEWAUNEE LAKESHO 1200    3     300/  6/  7 1022.5R
SHEBOYGAN LAKESH 1200    5     280/ 13/ 15 1025.6R
PORT WASHINGTON  1200    5     290/  8/ 11 1025.4R
MILWAUKEE LAKESH 1210    8     310/  8/ 11   N/A
KENOSHA   LAKESH 1200    7     310/ 10/ 15 1024.0R
$$

TC  - TEMPERATURE IN CELSIUS
VSB - VISIBILITY IN STATUTE MILES
WCI - WIND CHILL INDEX
HX  - HEAT INDEX




USA.gov is the U.S. government's official web portal to all federal, state and local government web resources and services.